Year,Month,Day,Hour,Minute,Value (Times are PST for insolation in W/m^2)
2010,11,10,00,00,0.00
2010,11,10,00,01,0.00
2010,11,10,00,02,0.00
2010,11,10,00,03,0.00
2010,11,10,00,04,0.00
2010,11,10,00,05,0.00
2010,11,10,00,06,0.00
2010,11,10,00,07,0.00
2010,11,10,00,08,0.00
2010,11,10,00,09,0.00
2010,11,10,00,10,0.00
2010,11,10,00,11,0.00
2010,11,10,00,12,0.00
2010,11,10,00,13,0.00
2010,11,10,00,14,0.00
2010,11,10,00,15,0.00
2010,11,10,00,16,0.00
2010,11,10,00,17,0.00
2010,11,10,00,18,0.00
2010,11,10,00,19,0.00
2010,11,10,00,20,0.00
2010,11,10,00,21,0.00
2010,11,10,00,22,0.00
2010,11,10,00,23,0.00
2010,11,10,00,24,0.00
2010,11,10,00,25,0.00
2010,11,10,00,26,0.00
2010,11,10,00,27,0.00
2010,11,10,00,28,0.00
2010,11,10,00,29,0.00
2010,11,10,00,30,0.00
2010,11,10,00,31,0.00
2010,11,10,00,32,0.00
2010,11,10,00,33,0.00
2010,11,10,00,34,0.00
2010,11,10,00,35,0.00
2010,11,10,00,36,0.00
2010,11,10,00,37,0.00
2010,11,10,00,38,0.00
2010,11,10,00,39,0.00
2010,11,10,00,40,0.00
2010,11,10,00,41,0.00
2010,11,10,00,42,0.00
2010,11,10,00,43,0.00
2010,11,10,00,44,0.00
2010,11,10,00,45,0.00
2010,11,10,00,46,0.00
2010,11,10,00,47,0.00
2010,11,10,00,48,0.00
2010,11,10,00,49,0.00
2010,11,10,00,50,0.00
2010,11,10,00,51,0.00
2010,11,10,00,52,0.00
2010,11,10,00,53,0.00
2010,11,10,00,54,0.00
2010,11,10,00,55,0.00
2010,11,10,00,56,0.00
2010,11,10,00,57,0.00
2010,11,10,00,58,0.00
2010,11,10,00,59,0.00
2010,11,10,01,00,0.00
2010,11,10,01,01,0.00
2010,11,10,01,02,0.00
2010,11,10,01,03,0.00
2010,11,10,01,04,0.00
2010,11,10,01,05,0.00
2010,11,10,01,06,0.00
2010,11,10,01,07,0.00
2010,11,10,01,08,0.00
2010,11,10,01,09,0.00
2010,11,10,01,10,0.00
2010,11,10,01,11,0.00
2010,11,10,01,12,0.00
2010,11,10,01,13,0.00
2010,11,10,01,14,0.00
2010,11,10,01,15,0.00
2010,11,10,01,16,0.00
2010,11,10,01,17,0.00
2010,11,10,01,18,0.00
2010,11,10,01,19,0.00
2010,11,10,01,20,0.00
2010,11,10,01,21,0.00
2010,11,10,01,22,0.00
2010,11,10,01,23,0.00
2010,11,10,01,24,0.00
2010,11,10,01,25,0.00
2010,11,10,01,26,0.00
2010,11,10,01,27,0.00
2010,11,10,01,28,0.00
2010,11,10,01,29,0.00
2010,11,10,01,30,0.00
2010,11,10,01,31,0.00
2010,11,10,01,32,0.00
2010,11,10,01,33,0.00
2010,11,10,01,34,0.00
2010,11,10,01,35,0.00
2010,11,10,01,36,0.00
2010,11,10,01,37,0.00
2010,11,10,01,38,0.00
2010,11,10,01,39,0.00
2010,11,10,01,40,0.00
2010,11,10,01,41,0.00
2010,11,10,01,42,0.00
2010,11,10,01,43,0.00
2010,11,10,01,44,0.00
2010,11,10,01,45,0.00
2010,11,10,01,46,0.00
2010,11,10,01,47,0.00
2010,11,10,01,48,0.00
2010,11,10,01,49,0.00
2010,11,10,01,50,0.00
2010,11,10,01,51,0.00
2010,11,10,01,52,0.00
2010,11,10,01,53,0.00
2010,11,10,01,54,0.00
2010,11,10,01,55,0.00
2010,11,10,01,56,0.00
2010,11,10,01,57,0.00
2010,11,10,01,58,0.00
2010,11,10,01,59,0.00
2010,11,10,02,00,0.00
2010,11,10,02,01,0.00
2010,11,10,02,02,0.00
2010,11,10,02,03,0.00
2010,11,10,02,04,0.00
2010,11,10,02,05,0.00
2010,11,10,02,06,0.00
2010,11,10,02,07,0.00
2010,11,10,02,08,0.00
2010,11,10,02,09,0.00
2010,11,10,02,10,0.00
2010,11,10,02,11,0.00
2010,11,10,02,12,0.00
2010,11,10,02,13,0.00
2010,11,10,02,14,0.00
2010,11,10,02,15,0.00
2010,11,10,02,16,0.00
2010,11,10,02,17,0.00
2010,11,10,02,18,0.00
2010,11,10,02,19,0.00
2010,11,10,02,20,0.00
2010,11,10,02,21,0.00
2010,11,10,02,22,0.00
2010,11,10,02,23,0.00
2010,11,10,02,24,0.00
2010,11,10,02,25,0.00
2010,11,10,02,26,0.00
2010,11,10,02,27,0.00
2010,11,10,02,28,0.00
2010,11,10,02,29,0.00
2010,11,10,02,30,0.00
2010,11,10,02,31,0.00
2010,11,10,02,32,0.00
2010,11,10,02,33,0.00
2010,11,10,02,34,0.00
2010,11,10,02,35,0.00
2010,11,10,02,36,0.00
2010,11,10,02,37,0.00
2010,11,10,02,38,0.00
2010,11,10,02,39,0.00
2010,11,10,02,40,0.00
2010,11,10,02,41,0.00
2010,11,10,02,42,0.00
2010,11,10,02,43,0.00
2010,11,10,02,44,0.00
2010,11,10,02,45,0.00
2010,11,10,02,46,0.00
2010,11,10,02,47,0.00
2010,11,10,02,48,0.00
2010,11,10,02,49,0.00
2010,11,10,02,50,0.00
2010,11,10,02,51,0.00
2010,11,10,02,52,0.00
2010,11,10,02,53,0.00
2010,11,10,02,54,0.00
2010,11,10,02,55,0.00
2010,11,10,02,56,0.00
2010,11,10,02,57,0.00
2010,11,10,02,58,0.00
2010,11,10,02,59,0.00
2010,11,10,03,00,0.00
2010,11,10,03,01,0.00
2010,11,10,03,02,0.00
2010,11,10,03,03,0.00
2010,11,10,03,04,0.00
2010,11,10,03,05,0.00
2010,11,10,03,06,0.00
2010,11,10,03,07,0.00
2010,11,10,03,08,0.00
2010,11,10,03,09,0.00
2010,11,10,03,10,0.00
2010,11,10,03,11,0.00
2010,11,10,03,12,0.00
2010,11,10,03,13,0.00
2010,11,10,03,14,0.00
2010,11,10,03,15,0.00
2010,11,10,03,16,0.00
2010,11,10,03,17,0.00
2010,11,10,03,18,0.00
2010,11,10,03,19,0.00
2010,11,10,03,20,0.00
2010,11,10,03,21,0.00
2010,11,10,03,22,0.00
2010,11,10,03,23,0.00
2010,11,10,03,24,0.00
2010,11,10,03,25,0.00
2010,11,10,03,26,0.00
2010,11,10,03,27,0.00
2010,11,10,03,28,0.00
2010,11,10,03,29,0.00
2010,11,10,03,30,0.00
2010,11,10,03,31,0.00
2010,11,10,03,32,0.00
2010,11,10,03,33,0.00
2010,11,10,03,34,0.00
2010,11,10,03,35,0.00
2010,11,10,03,36,0.00
2010,11,10,03,37,0.00
2010,11,10,03,38,0.00
2010,11,10,03,39,0.00
2010,11,10,03,40,0.00
2010,11,10,03,41,0.00
2010,11,10,03,42,0.00
2010,11,10,03,43,0.00
2010,11,10,03,44,0.00
2010,11,10,03,45,0.00
2010,11,10,03,46,0.00
2010,11,10,03,47,0.00
2010,11,10,03,48,0.00
2010,11,10,03,49,0.00
2010,11,10,03,50,0.00
2010,11,10,03,51,0.00
2010,11,10,03,52,0.00
2010,11,10,03,53,0.00
2010,11,10,03,54,0.00
2010,11,10,03,55,0.00
2010,11,10,03,56,0.00
2010,11,10,03,57,0.00
2010,11,10,03,58,0.00
2010,11,10,03,59,0.00
2010,11,10,04,00,0.00
2010,11,10,04,01,0.00
2010,11,10,04,02,0.00
2010,11,10,04,03,0.00
2010,11,10,04,04,0.00
2010,11,10,04,05,0.00
2010,11,10,04,06,0.00
2010,11,10,04,07,0.00
2010,11,10,04,08,0.00
2010,11,10,04,09,0.00
2010,11,10,04,10,0.00
2010,11,10,04,11,0.00
2010,11,10,04,12,0.00
2010,11,10,04,13,0.00
2010,11,10,04,14,0.00
2010,11,10,04,15,0.00
2010,11,10,04,16,0.00
2010,11,10,04,17,0.00
2010,11,10,04,18,0.00
2010,11,10,04,19,0.00
2010,11,10,04,20,0.00
2010,11,10,04,21,0.00
2010,11,10,04,22,0.00
2010,11,10,04,23,0.00
2010,11,10,04,24,0.00
2010,11,10,04,25,0.00
2010,11,10,04,26,0.00
2010,11,10,04,27,0.00
2010,11,10,04,28,0.00
2010,11,10,04,29,0.00
2010,11,10,04,30,0.00
2010,11,10,04,31,0.00
2010,11,10,04,32,0.00
2010,11,10,04,33,0.00
2010,11,10,04,34,0.00
2010,11,10,04,35,0.00
2010,11,10,04,36,0.00
2010,11,10,04,37,0.00
2010,11,10,04,38,0.00
2010,11,10,04,39,0.00
2010,11,10,04,40,0.00
2010,11,10,04,41,0.00
2010,11,10,04,42,0.00
2010,11,10,04,43,0.00
2010,11,10,04,44,0.00
2010,11,10,04,45,0.00
2010,11,10,04,46,0.00
2010,11,10,04,47,0.00
2010,11,10,04,48,0.00
2010,11,10,04,49,0.00
2010,11,10,04,50,0.00
2010,11,10,04,51,0.00
2010,11,10,04,52,0.00
2010,11,10,04,53,0.00
2010,11,10,04,54,0.00
2010,11,10,04,55,0.00
2010,11,10,04,56,0.00
2010,11,10,04,57,0.00
2010,11,10,04,58,0.00
2010,11,10,04,59,0.00
2010,11,10,05,00,0.00
2010,11,10,05,01,0.00
2010,11,10,05,02,0.00
2010,11,10,05,03,0.00
2010,11,10,05,04,0.00
2010,11,10,05,05,0.00
2010,11,10,05,06,0.00
2010,11,10,05,07,0.00
2010,11,10,05,08,0.00
2010,11,10,05,09,0.00
2010,11,10,05,10,0.00
2010,11,10,05,11,0.00
2010,11,10,05,12,0.00
2010,11,10,05,13,0.00
2010,11,10,05,14,0.00
2010,11,10,05,15,0.00
2010,11,10,05,16,0.00
2010,11,10,05,17,0.00
2010,11,10,05,18,0.00
2010,11,10,05,19,0.00
2010,11,10,05,20,0.00
2010,11,10,05,21,0.00
2010,11,10,05,22,0.00
2010,11,10,05,23,0.00
2010,11,10,05,24,0.00
2010,11,10,05,25,0.00
2010,11,10,05,26,0.00
2010,11,10,05,27,0.00
2010,11,10,05,28,0.00
2010,11,10,05,29,0.00
2010,11,10,05,30,0.00
2010,11,10,05,31,0.00
2010,11,10,05,32,0.00
2010,11,10,05,33,0.00
2010,11,10,05,34,0.00
2010,11,10,05,35,0.00
2010,11,10,05,36,0.00
2010,11,10,05,37,0.00
2010,11,10,05,38,0.00
2010,11,10,05,39,0.00
2010,11,10,05,40,0.00
2010,11,10,05,41,0.00
2010,11,10,05,42,0.00
2010,11,10,05,43,0.00
2010,11,10,05,44,0.00
2010,11,10,05,45,0.00
2010,11,10,05,46,0.00
2010,11,10,05,47,0.00
2010,11,10,05,48,0.00
2010,11,10,05,49,0.00
2010,11,10,05,50,0.00
2010,11,10,05,51,0.00
2010,11,10,05,52,0.00
2010,11,10,05,53,0.00
2010,11,10,05,54,0.00
2010,11,10,05,55,0.00
2010,11,10,05,56,0.00
2010,11,10,05,57,0.00
2010,11,10,05,58,0.00
2010,11,10,05,59,0.00
2010,11,10,06,00,0.00
2010,11,10,06,01,0.00
2010,11,10,06,02,0.00
2010,11,10,06,03,0.00
2010,11,10,06,04,0.00
2010,11,10,06,05,0.00
2010,11,10,06,06,0.00
2010,11,10,06,07,0.00
2010,11,10,06,08,0.00
2010,11,10,06,09,0.00
2010,11,10,06,10,0.00
2010,11,10,06,11,0.00
2010,11,10,06,12,0.00
2010,11,10,06,13,0.00
2010,11,10,06,14,0.00
2010,11,10,06,15,0.00
2010,11,10,06,16,0.00
2010,11,10,06,17,0.00
2010,11,10,06,18,0.00
2010,11,10,06,19,0.00
2010,11,10,06,20,0.00
2010,11,10,06,21,0.00
2010,11,10,06,22,0.00
2010,11,10,06,23,0.00
2010,11,10,06,24,0.00
2010,11,10,06,25,0.00
2010,11,10,06,26,0.00
2010,11,10,06,27,0.00
2010,11,10,06,28,0.00
2010,11,10,06,29,0.00
2010,11,10,06,30,0.00
2010,11,10,06,31,0.00
2010,11,10,06,32,0.00
2010,11,10,06,33,0.00
2010,11,10,06,34,0.00
2010,11,10,06,35,0.00
2010,11,10,06,36,0.00
2010,11,10,06,37,0.00
2010,11,10,06,38,0.00
2010,11,10,06,39,0.00
2010,11,10,06,40,0.00
2010,11,10,06,41,0.00
2010,11,10,06,42,0.00
2010,11,10,06,43,0.00
2010,11,10,06,44,0.00
2010,11,10,06,45,0.00
2010,11,10,06,46,0.00
2010,11,10,06,47,0.00
2010,11,10,06,48,0.00
2010,11,10,06,49,0.00
2010,11,10,06,50,0.00
2010,11,10,06,51,0.00
2010,11,10,06,52,0.00
2010,11,10,06,53,0.00
2010,11,10,06,54,0.00
2010,11,10,06,55,0.00
2010,11,10,06,56,0.00
2010,11,10,06,57,0.00
2010,11,10,06,58,0.00
2010,11,10,06,59,0.00
2010,11,10,07,00,0.00
2010,11,10,07,01,0.00
2010,11,10,07,02,0.00
2010,11,10,07,03,0.00
2010,11,10,07,04,0.00
2010,11,10,07,05,0.00
2010,11,10,07,06,0.00
2010,11,10,07,07,0.00
2010,11,10,07,08,0.00
2010,11,10,07,09,0.00
2010,11,10,07,10,0.00
2010,11,10,07,11,0.00
2010,11,10,07,12,0.00
2010,11,10,07,13,0.00
2010,11,10,07,14,0.00
2010,11,10,07,15,0.00
2010,11,10,07,16,0.00
2010,11,10,07,17,0.00
2010,11,10,07,18,3.70
2010,11,10,07,19,5.00
2010,11,10,07,20,5.00
2010,11,10,07,21,5.00
2010,11,10,07,22,5.00
2010,11,10,07,23,5.20
2010,11,10,07,24,7.00
2010,11,10,07,25,7.00
2010,11,10,07,26,7.00
2010,11,10,07,27,7.00
2010,11,10,07,28,7.80
2010,11,10,07,29,9.00
2010,11,10,07,30,9.00
2010,11,10,07,31,9.00
2010,11,10,07,32,10.30
2010,11,10,07,33,11.00
2010,11,10,07,34,11.00
2010,11,10,07,35,11.80
2010,11,10,07,36,13.90
2010,11,10,07,37,14.00
2010,11,10,07,38,14.20
2010,11,10,07,39,16.00
2010,11,10,07,40,16.40
2010,11,10,07,41,18.20
2010,11,10,07,42,19.70
2010,11,10,07,43,20.20
2010,11,10,07,44,19.00
2010,11,10,07,45,18.50
2010,11,10,07,46,18.00
2010,11,10,07,47,18.00
2010,11,10,07,48,18.00
2010,11,10,07,49,18.00
2010,11,10,07,50,18.00
2010,11,10,07,51,18.00
2010,11,10,07,52,19.10
2010,11,10,07,53,20.80
2010,11,10,07,54,19.00
2010,11,10,07,55,19.00
2010,11,10,07,56,19.00
2010,11,10,07,57,19.00
2010,11,10,07,58,19.90
2010,11,10,07,59,21.00
2010,11,10,08,00,22.20
2010,11,10,08,01,23.00
2010,11,10,08,02,21.70
2010,11,10,08,03,21.00
2010,11,10,08,04,21.00
2010,11,10,08,05,21.00
2010,11,10,08,06,21.00
2010,11,10,08,07,21.00
2010,11,10,08,08,21.20
2010,11,10,08,09,23.00
2010,11,10,08,10,23.00
2010,11,10,08,11,23.00
2010,11,10,08,12,24.80
2010,11,10,08,13,32.40
2010,11,10,08,14,43.70
2010,11,10,08,15,53.70
2010,11,10,08,16,60.50
2010,11,10,08,17,62.70
2010,11,10,08,18,64.50
2010,11,10,08,19,68.20
2010,11,10,08,20,69.00
2010,11,10,08,21,69.90
2010,11,10,08,22,72.00
2010,11,10,08,23,74.20
2010,11,10,08,24,76.20
2010,11,10,08,25,77.40
2010,11,10,08,26,79.00
2010,11,10,08,27,80.50
2010,11,10,08,28,83.40
2010,11,10,08,29,85.90
2010,11,10,08,30,89.10
2010,11,10,08,31,91.80
2010,11,10,08,32,93.00
2010,11,10,08,33,96.50
2010,11,10,08,34,102.70
2010,11,10,08,35,104.00
2010,11,10,08,36,102.10
2010,11,10,08,37,102.10
2010,11,10,08,38,104.10
2010,11,10,08,39,105.30
2010,11,10,08,40,108.00
2010,11,10,08,41,111.00
2010,11,10,08,42,111.60
2010,11,10,08,43,113.40
2010,11,10,08,44,114.90
2010,11,10,08,45,117.10
2010,11,10,08,46,119.20
2010,11,10,08,47,122.00
2010,11,10,08,48,124.50
2010,11,10,08,49,125.00
2010,11,10,08,50,127.50
2010,11,10,08,51,129.90
2010,11,10,08,52,132.10
2010,11,10,08,53,134.10
2010,11,10,08,54,135.30
2010,11,10,08,55,137.40
2010,11,10,08,56,139.60
2010,11,10,08,57,142.10
2010,11,10,08,58,144.90
2010,11,10,08,59,146.90
2010,11,10,09,00,149.60
2010,11,10,09,01,151.00
2010,11,10,09,02,153.50
2010,11,10,09,03,155.70
2010,11,10,09,04,157.60
2010,11,10,09,05,159.70
2010,11,10,09,06,161.90
2010,11,10,09,07,163.00
2010,11,10,09,08,167.20
2010,11,10,09,09,169.30
2010,11,10,09,10,171.20
2010,11,10,09,11,172.60
2010,11,10,09,12,174.70
2010,11,10,09,13,177.30
2010,11,10,09,14,180.00
2010,11,10,09,15,182.10
2010,11,10,09,16,184.20
2010,11,10,09,17,185.60
2010,11,10,09,18,187.50
2010,11,10,09,19,189.60
2010,11,10,09,20,191.70
2010,11,10,09,21,192.90
2010,11,10,09,22,195.00
2010,11,10,09,23,195.40
2010,11,10,09,24,199.20
2010,11,10,09,25,200.40
2010,11,10,09,26,202.50
2010,11,10,09,27,204.70
2010,11,10,09,28,206.40
2010,11,10,09,29,208.00
2010,11,10,09,30,210.20
2010,11,10,09,31,212.30
2010,11,10,09,32,213.70
2010,11,10,09,33,214.00
2010,11,10,09,34,215.60
2010,11,10,09,35,219.40
2010,11,10,09,36,220.00
2010,11,10,09,37,221.00
2010,11,10,09,38,223.20
2010,11,10,09,39,225.30
2010,11,10,09,40,227.40
2010,11,10,09,41,229.30
2010,11,10,09,42,230.70
2010,11,10,09,43,232.80
2010,11,10,09,44,234.90
2010,11,10,09,45,236.50
2010,11,10,09,46,238.30
2010,11,10,09,47,240.40
2010,11,10,09,48,242.50
2010,11,10,09,49,243.80
2010,11,10,09,50,245.70
2010,11,10,09,51,247.90
2010,11,10,09,52,251.10
2010,11,10,09,53,253.20
2010,11,10,09,54,255.00
2010,11,10,09,55,255.40
2010,11,10,09,56,257.90
2010,11,10,09,57,260.00
2010,11,10,09,58,260.80
2010,11,10,09,59,262.00
2010,11,10,10,00,263.10
2010,11,10,10,01,264.00
2010,11,10,10,02,266.10
2010,11,10,10,03,267.00
2010,11,10,10,04,268.60
2010,11,10,10,05,270.60
2010,11,10,10,06,271.00
2010,11,10,10,07,272.00
2010,11,10,10,08,274.20
2010,11,10,10,09,276.30
2010,11,10,10,10,278.20
2010,11,10,10,11,279.00
2010,11,10,10,12,279.70
2010,11,10,10,13,281.80
2010,11,10,10,14,284.00
2010,11,10,10,15,286.10
2010,11,10,10,16,287.60
2010,11,10,10,17,288.00
2010,11,10,10,18,289.50
2010,11,10,10,19,291.60
2010,11,10,10,20,292.00
2010,11,10,10,21,293.80
2010,11,10,10,22,295.00
2010,11,10,10,23,297.20
2010,11,10,10,24,299.30
2010,11,10,10,25,302.10
2010,11,10,10,26,306.90
2010,11,10,10,27,313.10
2010,11,10,10,28,320.00
2010,11,10,10,29,286.50
2010,11,10,10,30,253.00
2010,11,10,10,31,188.20
2010,11,10,10,32,167.60
2010,11,10,10,33,159.80
2010,11,10,10,34,143.50
2010,11,10,10,35,151.20
2010,11,10,10,36,149.20
2010,11,10,10,37,137.10
2010,11,10,10,38,127.50
2010,11,10,10,39,123.30
2010,11,10,10,40,119.00
2010,11,10,10,41,94.00
2010,11,10,10,42,94.90
2010,11,10,10,43,101.10
2010,11,10,10,44,91.80
2010,11,10,10,45,87.10
2010,11,10,10,46,120.40
2010,11,10,10,47,174.80
2010,11,10,10,48,188.00
2010,11,10,10,49,345.00
2010,11,10,10,50,417.60
2010,11,10,10,51,423.80
2010,11,10,10,52,424.00
2010,11,10,10,53,424.00
2010,11,10,10,54,424.00
2010,11,10,10,55,411.60
2010,11,10,10,56,362.00
2010,11,10,10,57,388.50
2010,11,10,10,58,464.30
2010,11,10,10,59,506.00
2010,11,10,11,00,465.50
2010,11,10,11,01,429.00
2010,11,10,11,02,254.50
2010,11,10,11,03,199.80
2010,11,10,11,04,201.10
2010,11,10,11,05,209.10
2010,11,10,11,06,199.60
2010,11,10,11,07,264.00
2010,11,10,11,08,257.80
2010,11,10,11,09,147.40
2010,11,10,11,10,158.20
2010,11,10,11,11,177.70
2010,11,10,11,12,184.50
2010,11,10,11,13,172.50
2010,11,10,11,14,166.90
2010,11,10,11,15,175.60
2010,11,10,11,16,179.70
2010,11,10,11,17,175.60
2010,11,10,11,18,162.20
2010,11,10,11,19,156.40
2010,11,10,11,20,159.20
2010,11,10,11,21,176.10
2010,11,10,11,22,196.80
2010,11,10,11,23,190.30
2010,11,10,11,24,163.70
2010,11,10,11,25,145.50
2010,11,10,11,26,149.50
2010,11,10,11,27,172.40
2010,11,10,11,28,185.40
2010,11,10,11,29,178.90
2010,11,10,11,30,159.40
2010,11,10,11,31,137.60
2010,11,10,11,32,120.40
2010,11,10,11,33,114.50
2010,11,10,11,34,124.40
2010,11,10,11,35,144.70
2010,11,10,11,36,162.20
2010,11,10,11,37,178.00
2010,11,10,11,38,186.00
2010,11,10,11,39,197.50
2010,11,10,11,40,216.30
2010,11,10,11,41,238.10
2010,11,10,11,42,251.30
2010,11,10,11,43,254.60
2010,11,10,11,44,238.50
2010,11,10,11,45,232.60
2010,11,10,11,46,209.60
2010,11,10,11,47,192.20
2010,11,10,11,48,178.20
2010,11,10,11,49,175.50
2010,11,10,11,50,187.80
2010,11,10,11,51,205.20
2010,11,10,11,52,220.00
2010,11,10,11,53,239.10
2010,11,10,11,54,258.30
2010,11,10,11,55,262.20
2010,11,10,11,56,268.60
2010,11,10,11,57,276.10
2010,11,10,11,58,344.80
2010,11,10,11,59,394.00
2010,11,10,12,00,306.10
2010,11,10,12,01,246.60
2010,11,10,12,02,258.00
2010,11,10,12,03,258.00
2010,11,10,12,04,516.20
2010,11,10,12,05,531.90
2010,11,10,12,06,583.70
2010,11,10,12,07,594.00
2010,11,10,12,08,594.00
2010,11,10,12,09,551.50
2010,11,10,12,10,325.00
2010,11,10,12,11,377.90
2010,11,10,12,12,514.20
2010,11,10,12,13,488.90
2010,11,10,12,14,482.50
2010,11,10,12,15,473.00
2010,11,10,12,16,464.00
2010,11,10,12,17,464.00
2010,11,10,12,18,479.00
2010,11,10,12,19,485.00
2010,11,10,12,20,422.40
2010,11,10,12,21,415.00
2010,11,10,12,22,415.00
2010,11,10,12,23,123.50
2010,11,10,12,24,131.60
2010,11,10,12,25,152.90
2010,11,10,12,26,162.40
2010,11,10,12,27,171.60
2010,11,10,12,28,175.20
2010,11,10,12,29,215.90
2010,11,10,12,30,231.50
2010,11,10,12,31,255.60
2010,11,10,12,32,290.00
2010,11,10,12,33,290.00
2010,11,10,12,34,251.30
2010,11,10,12,35,241.00
2010,11,10,12,36,365.40
2010,11,10,12,37,380.00
2010,11,10,12,38,191.10
2010,11,10,12,39,172.30
2010,11,10,12,40,164.90
2010,11,10,12,41,171.20
2010,11,10,12,42,192.80
2010,11,10,12,43,205.80
2010,11,10,12,44,165.80
2010,11,10,12,45,202.20
2010,11,10,12,46,232.00
2010,11,10,12,47,232.00
2010,11,10,12,48,266.60
2010,11,10,12,49,252.90
2010,11,10,12,50,246.00
2010,11,10,12,51,399.90
2010,11,10,12,52,448.00
2010,11,10,12,53,434.00
2010,11,10,12,54,167.30
2010,11,10,12,55,160.10
2010,11,10,12,56,171.20
2010,11,10,12,57,214.90
2010,11,10,12,58,305.20
2010,11,10,12,59,308.20
2010,11,10,13,00,235.90
2010,11,10,13,01,207.80
2010,11,10,13,02,207.20
2010,11,10,13,03,194.30
2010,11,10,13,04,191.90
2010,11,10,13,05,196.20
2010,11,10,13,06,204.60
2010,11,10,13,07,217.00
2010,11,10,13,08,240.20
2010,11,10,13,09,276.00
2010,11,10,13,10,332.60
2010,11,10,13,11,555.30
2010,11,10,13,12,545.00
2010,11,10,13,13,426.70
2010,11,10,13,14,238.90
2010,11,10,13,15,199.40
2010,11,10,13,16,192.90
2010,11,10,13,17,206.20
2010,11,10,13,18,240.50
2010,11,10,13,19,294.50
2010,11,10,13,20,349.00
2010,11,10,13,21,359.00
2010,11,10,13,22,215.40
2010,11,10,13,23,191.20
2010,11,10,13,24,177.10
2010,11,10,13,25,184.50
2010,11,10,13,26,202.40
2010,11,10,13,27,229.70
2010,11,10,13,28,213.60
2010,11,10,13,29,216.80
2010,11,10,13,30,229.60
2010,11,10,13,31,255.40
2010,11,10,13,32,313.60
2010,11,10,13,33,312.40
2010,11,10,13,34,382.90
2010,11,10,13,35,395.60
2010,11,10,13,36,365.40
2010,11,10,13,37,362.00
2010,11,10,13,38,362.70
2010,11,10,13,39,377.40
2010,11,10,13,40,422.00
2010,11,10,13,41,392.80
2010,11,10,13,42,307.70
2010,11,10,13,43,317.60
2010,11,10,13,44,351.80
2010,11,10,13,45,362.30
2010,11,10,13,46,353.80
2010,11,10,13,47,337.70
2010,11,10,13,48,338.60
2010,11,10,13,49,337.00
2010,11,10,13,50,338.50
2010,11,10,13,51,338.10
2010,11,10,13,52,339.00
2010,11,10,13,53,343.00
2010,11,10,13,54,343.80
2010,11,10,13,55,348.40
2010,11,10,13,56,350.00
2010,11,10,13,57,350.00
2010,11,10,13,58,352.90
2010,11,10,13,59,357.00
2010,11,10,14,00,353.30
2010,11,10,14,01,346.10
2010,11,10,14,02,341.60
2010,11,10,14,03,338.80
2010,11,10,14,04,331.70
2010,11,10,14,05,327.50
2010,11,10,14,06,325.10
2010,11,10,14,07,325.00
2010,11,10,14,08,321.40
2010,11,10,14,09,315.90
2010,11,10,14,10,316.90
2010,11,10,14,11,324.90
2010,11,10,14,12,332.70
2010,11,10,14,13,341.40
2010,11,10,14,14,345.00
2010,11,10,14,15,345.50
2010,11,10,14,16,346.00
2010,11,10,14,17,348.60
2010,11,10,14,18,351.50
2010,11,10,14,19,343.80
2010,11,10,14,20,337.00
2010,11,10,14,21,329.70
2010,11,10,14,22,330.00
2010,11,10,14,23,331.70
2010,11,10,14,24,324.60
2010,11,10,14,25,303.40
2010,11,10,14,26,307.50
2010,11,10,14,27,296.40
2010,11,10,14,28,300.90
2010,11,10,14,29,287.80
2010,11,10,14,30,279.40
2010,11,10,14,31,275.70
2010,11,10,14,32,272.00
2010,11,10,14,33,269.50
2010,11,10,14,34,267.40
2010,11,10,14,35,264.50
2010,11,10,14,36,264.00
2010,11,10,14,37,258.00
2010,11,10,14,38,226.40
2010,11,10,14,39,252.70
2010,11,10,14,40,250.00
2010,11,10,14,41,249.50
2010,11,10,14,42,247.40
2010,11,10,14,43,245.20
2010,11,10,14,44,243.50
2010,11,10,14,45,240.90
2010,11,10,14,46,237.90
2010,11,10,14,47,237.00
2010,11,10,14,48,234.80
2010,11,10,14,49,232.40
2010,11,10,14,50,232.00
2010,11,10,14,51,229.30
2010,11,10,14,52,220.00
2010,11,10,14,53,220.00
2010,11,10,14,54,217.50
2010,11,10,14,55,207.40
2010,11,10,14,56,219.40
2010,11,10,14,57,217.30
2010,11,10,14,58,215.20
2010,11,10,14,59,212.60
2010,11,10,15,00,209.90
2010,11,10,15,01,207.30
2010,11,10,15,02,203.30
2010,11,10,15,03,200.60
2010,11,10,15,04,197.80
2010,11,10,15,05,195.30
2010,11,10,15,06,192.40
2010,11,10,15,07,188.20
2010,11,10,15,08,185.90
2010,11,10,15,09,184.70
2010,11,10,15,10,182.50
2010,11,10,15,11,180.20
2010,11,10,15,12,177.30
2010,11,10,15,13,175.20
2010,11,10,15,14,172.60
2010,11,10,15,15,168.90
2010,11,10,15,16,165.90
2010,11,10,15,17,163.10
2010,11,10,15,18,160.60
2010,11,10,15,19,156.80
2010,11,10,15,20,155.20
2010,11,10,15,21,153.10
2010,11,10,15,22,150.90
2010,11,10,15,23,149.00
2010,11,10,15,24,148.50
2010,11,10,15,25,145.20
2010,11,10,15,26,141.20
2010,11,10,15,27,138.30
2010,11,10,15,28,136.20
2010,11,10,15,29,133.60
2010,11,10,15,30,130.90
2010,11,10,15,31,128.30
2010,11,10,15,32,125.70
2010,11,10,15,33,122.10
2010,11,10,15,34,121.00
2010,11,10,15,35,118.50
2010,11,10,15,36,116.10
2010,11,10,15,37,113.00
2010,11,10,15,38,110.90
2010,11,10,15,39,108.40
2010,11,10,15,40,104.80
2010,11,10,15,41,100.60
2010,11,10,15,42,80.30
2010,11,10,15,43,57.40
2010,11,10,15,44,57.60
2010,11,10,15,45,69.70
2010,11,10,15,46,76.90
2010,11,10,15,47,81.40
2010,11,10,15,48,80.10
2010,11,10,15,49,76.60
2010,11,10,15,50,72.60
2010,11,10,15,51,53.20
2010,11,10,15,52,32.00
2010,11,10,15,53,25.30
2010,11,10,15,54,28.80
2010,11,10,15,55,32.40
2010,11,10,15,56,30.50
2010,11,10,15,57,32.00
2010,11,10,15,58,29.50
2010,11,10,15,59,23.60
2010,11,10,16,00,21.00
2010,11,10,16,01,21.00
2010,11,10,16,02,21.00
2010,11,10,16,03,19.50
2010,11,10,16,04,19.00
2010,11,10,16,05,20.60
2010,11,10,16,06,19.20
2010,11,10,16,07,19.00
2010,11,10,16,08,19.00
2010,11,10,16,09,19.00
2010,11,10,16,10,18.80
2010,11,10,16,11,18.00
2010,11,10,16,12,18.00
2010,11,10,16,13,18.00
2010,11,10,16,14,18.00
2010,11,10,16,15,18.00
2010,11,10,16,16,16.80
2010,11,10,16,17,16.00
2010,11,10,16,18,16.00
2010,11,10,16,19,16.00
2010,11,10,16,20,16.00
2010,11,10,16,21,16.00
2010,11,10,16,22,16.00
2010,11,10,16,23,14.00
2010,11,10,16,24,14.00
2010,11,10,16,25,14.00
2010,11,10,16,26,13.50
2010,11,10,16,27,12.00
2010,11,10,16,28,12.00
2010,11,10,16,29,12.00
2010,11,10,16,30,11.50
2010,11,10,16,31,11.00
2010,11,10,16,32,11.00
2010,11,10,16,33,11.00
2010,11,10,16,34,9.40
2010,11,10,16,35,9.00
2010,11,10,16,36,9.00
2010,11,10,16,37,9.00
2010,11,10,16,38,7.00
2010,11,10,16,39,7.00
2010,11,10,16,40,7.00
2010,11,10,16,41,6.50
2010,11,10,16,42,5.00
2010,11,10,16,43,5.00
2010,11,10,16,44,5.00
2010,11,10,16,45,2.40
2010,11,10,16,46,0.00
2010,11,10,16,47,0.00
2010,11,10,16,48,0.00
2010,11,10,16,49,0.00
2010,11,10,16,50,0.00
2010,11,10,16,51,0.00
2010,11,10,16,52,0.00
2010,11,10,16,53,0.00
2010,11,10,16,54,0.00
2010,11,10,16,55,0.00
2010,11,10,16,56,0.00
2010,11,10,16,57,0.00
2010,11,10,16,58,0.00
2010,11,10,16,59,0.00
2010,11,10,17,00,0.00
2010,11,10,17,01,0.00
2010,11,10,17,02,0.00
2010,11,10,17,03,0.00
2010,11,10,17,04,0.00
2010,11,10,17,05,0.00
2010,11,10,17,06,0.00
2010,11,10,17,07,0.00
2010,11,10,17,08,0.00
2010,11,10,17,09,0.00
2010,11,10,17,10,0.00
2010,11,10,17,11,0.00
2010,11,10,17,12,0.00
2010,11,10,17,13,0.00
2010,11,10,17,14,0.00
2010,11,10,17,15,0.00
2010,11,10,17,16,0.00
2010,11,10,17,17,0.00
2010,11,10,17,18,0.00
2010,11,10,17,19,0.00
2010,11,10,17,20,0.00
2010,11,10,17,21,0.00
2010,11,10,17,22,0.00